Вернуться в каталог

FENGYUN 1C DEB

АктивенSSO
NORAD 31252·DEBRIS·🇨🇳 China

Запущен May 10, 1999 с Taiyuan Satellite Launch Center

Loading…

Ближайшие Пролёты (ближайшие 24 часа)

TLE

УстаревающийSource: Space-Track

Эпоха: Sep 7, 2026, 06:33 UTC

1 31252U 99025BMJ 26250.27352275  .00001013  00000-0  25255-3 0  9993
2 31252  98.3037 266.6726 0212707  82.5291 280.0010 14.40967264 10742

Отслеживайте FENGYUN 1C DEB в реальном времени с AllMySat

Download on the App Store